This is the latest recevied weather packets stored in our database for station/object KG5EO. If no packets are shown the sender has not sent any weather packets the latest 1 day(s).
| Time | Temp. | Humidity | Pressure | Rain* | Wind** | Luminosity | Snow |
|---|---|---|---|---|---|---|---|
| 1778016673 | 25° C | 28% | 40.9 hPa | 0 mm | 2.68 m/s, 303° | - | - |
| 1778016371 | 25° C | 28% | 40.9 hPa | 0 mm | 1.79 m/s, 305° | - | - |
| 1778016072 | 25.56° C | 28% | 40.9 hPa | 0 mm | 3.58 m/s, 248° | - | - |
| 1778015771 | 25° C | 29% | 40.9 hPa | 0 mm | 2.24 m/s, 260° | - | - |
| 1778015471 | 25° C | 28% | 40.9 hPa | 0 mm | 3.13 m/s, 276° | - | - |
| 1778015171 | 25.56° C | 28% | 40.9 hPa | 0 mm | 1.34 m/s, 257° | - | - |
| 1778014871 | 25° C | 28% | 40.9 hPa | 0 mm | 2.68 m/s, 292° | - | - |
| 1778014570 | 25° C | 29% | 40.9 hPa | 0 mm | 1.34 m/s, 289° | - | - |
| 1778014270 | 25° C | 29% | 40.9 hPa | 0 mm | 1.34 m/s, 255° | - | - |
| 1778013970 | 25° C | 28% | 40.9 hPa | 0 mm | 3.13 m/s, 231° | - | - |
| 1778013670 | 25° C | 27% | 40.9 hPa | 0 mm | 3.13 m/s, 224° | - | - |
| 1778013370 | 25° C | 28% | 40.9 hPa | 0 mm | 1.34 m/s, 271° | - | - |
| 1778013069 | 25° C | 29% | 40.9 hPa | 0 mm | 2.68 m/s, 286° | - | - |
| 1778012769 | 25° C | 31% | 40.9 hPa | 0 mm | 0 m/s | - | - |
| 1778012469 | 25° C | 28% | 40.9 hPa | 0 mm | 1.79 m/s, 248° | - | - |
| 1778012169 | 25.56° C | 29% | 40.9 hPa | 0 mm | 1.34 m/s, 212° | - | - |
| 1778011869 | 25° C | 30% | 40.9 hPa | 0 mm | 3.58 m/s, 250° | - | - |
| 1778011570 | 25° C | 29% | 40.9 hPa | 0 mm | 0.89 m/s, 252° | - | - |
| 1778011269 | 25° C | 32% | 40.9 hPa | 0 mm | 1.34 m/s, 226° | - | - |
| 1778010968 | 24.44° C | 32% | 40.9 hPa | 0 mm | 3.58 m/s, 290° | - | - |
| 1778010669 | 24.44° C | 31% | 41 hPa | 0 mm | 0.89 m/s, 246° | - | - |
| 1778010368 | 25° C | 31% | 41 hPa | 0 mm | 2.24 m/s, 257° | - | - |
| 1778010068 | 25° C | 32% | 41 hPa | 0 mm | 2.68 m/s, 295° | - | - |
| 1778009768 | 25° C | 33% | 41 hPa | 0 mm | 0.89 m/s, 247° | - | - |
| 1778009468 | 25° C | 32% | 41 hPa | 0 mm | 0.89 m/s, 256° | - | - |
* Rain latest hour (hover to see other rain measurements)
** Current wind speed in m/s (hover to see current wind gust speed)